Flag for China Weather past 2 weeks in Nanning, Guangxi, China

Now
82 °F

Sunny.


Feels Like: 87 °F
Forecast: 72 / 90 °F
Wind: 15 mph from Southeast

Location: Nanning Airport

Current Time: Mar 31, 2015 at 6:19:09 PM

Latest Report: Mar 31, 2015 at 6:00 PM


Visibility: 10 mi

Pressure: 29.71 "Hg

Humidity: 70%

Dew point: 72 °F

Location of NanningLocation

Historic Weather in Nanning — Graph

°F

Nanning temperature yesterday

Maximum temperature yesterday: 82 °F (at 2:00 PM)
Minimum temperature yesterday: 72 °F (at 12:00 AM)
Average temperature yesterday: 76 °F

Past Weeks' High & Low Weather Summary

 TemperatureHumidityPressure
High90 °F (Mar 18, 2:00 PM)100% (Mar 17, 1:00 AM)30.27 "Hg (Mar 17, 1:00 AM)
Low61 °F (Mar 22, 7:00 AM)52% (Mar 31, 4:00 PM)29.62 "Hg (Mar 17, 4:00 PM)
Average72 °F86%29.97 "Hg
* Reported Mar 16 5:00 PM — Mar 31 5:00 PM, Nanning, Weather by CustomWeather, © 2015

Note: Actual official high and low records may vary slightly from our data, if they occured in-between our weather recording intervals... More about our weather records

Advertising

Nanning weather history for previous 24 hours

 ConditionsComfort  
Time TempWeatherWind HumidityBarometerVisibility
5:00 PM
Tue, Mar 31
86 °FPassing clouds.10 mph62%29.68 "HgN/A
4:00 PM88 °FScattered clouds.13 mph52%29.68 "HgN/A
3:00 PM88 °FScattered clouds.10 mph55%29.71 "HgN/A
2:00 PM88 °FScattered clouds.10 mph59%29.74 "HgN/A
1:00 PM84 °FBroken clouds.8 mph70%29.80 "HgN/A
12:00 PM82 °FBroken clouds.8 mph74%29.83 "HgN/A
11:00 AM81 °FBroken clouds.8 mph74%29.86 "HgN/A
10:00 AM81 °FPassing clouds.10 mph70%29.86 "HgN/A
9:00 AM77 °FSunny.8 mph79%29.86 "Hg10 mi
8:00 AM73 °FPassing clouds.3 mph89%29.86 "HgN/A
7:00 AM70 °FScattered clouds.1 mph94%29.86 "HgN/A
6:00 AM72 °FPassing clouds.6 mph94%29.80 "HgN/A
5:00 AM70 °FClear.3 mph100%29.80 "Hg10 mi
4:00 AM70 °FClear.3 mph94%29.83 "Hg10 mi
3:00 AM73 °FClear.6 mph89%29.83 "Hg10 mi
2:00 AM75 °FPassing clouds.6 mph83%29.83 "HgN/A
1:00 AM75 °FPassing clouds.6 mph83%29.86 "HgN/A
12:00 AM73 °FPassing clouds.6 mph89%29.86 "HgN/A
11:00 PM
Mon, Mar 30
73 °FClear.8 mph94%29.86 "Hg10 mi
10:00 PM75 °FClear.6 mph89%29.86 "Hg10 mi
9:00 PM75 °FPassing clouds.6 mph89%29.83 "HgN/A
8:00 PM77 °FClear.10 mph83%29.80 "Hg10 mi
7:00 PM79 °FSunny.13 mph79%29.77 "Hg10 mi
6:00 PM81 °FScattered clouds.10 mph74%29.77 "HgN/A
Weather by CustomWeather, © 2015

See weather overviewHow to use our weather pages